Погода в Александровской

Россия / Санкт-Петербург и Ленинградская область     59°43′57″N   30°20′31″E
темп.,
°C
ветер,
м/с
пор.,
м/с
влажн.,
%
обл.,
%
осадки,
мм/ч
давл.,
гПа
погр.,
м
27 июля, вт
вт2700:00+17ююв11672 0.0 102011
03:00+17ююз22715 0.0 102024
06:00+17юз22680 0.0 102030
09:00+24ююз22463 0.0 1019364
12:00+28ююв22354 0.0 10192110
15:00+29ююв333129 0.0 10172716
18:00+29юв44316 0.0 10162410
21:00+22юв355352 0.0 101557
28 июля, ср
ср2800:00+19юв236099 0.0 101526
03:00+18юв3368100 0.0 101448
06:00+18юв3566100 0.0 1012112
09:00+21ю3569100 0.5 1011371
12:00+23юз3463100 0.3 1010686
15:00+21ююв3774100 0.3 1009415
18:00+24ююв446492 0.0 10071131
21:00+19юз369199 5.1 1006112
29 июля, чт
чт2900:00+17зюз3595100 0.2 100690
03:00+17зюз37956 0.2 1005132
06:00+17з36947 0.0 1004161
09:00+20зюз4778100 0.0 1004577
12:00+24зюз6853100 0.0 10031557
15:00+23зюз696411 1.4 10031344
18:00+22з596519 1.1 10021146
21:00+18зюз34855 2.0 100269
30 июля, пт
пт3000:00+16юз399258 0.0 1002171
03:00+15юз4119099 0.0 1002315
06:00+15юз4128888 0.0 1002412
09:00+20юз696674 0.0 10021164
12:00+23юз8114169 0.0 10012476
15:00+21юз594999 0.1 1000815
18:00+21юз595018 0.1 999841
21:00+16зюз5108288 0.9 999311
31 июля, сб
сб3100:00+13ю4139092 0.3 998266
03:00+14ю7167396 0.3 995621
06:00+13ююз81690100 2.2 993724
09:00+15юз81687100 6.5 9931030
12:00+18зюз8138327 1.1 9941146
15:00+20зюз81269100 2.9 9951598
18:00+18зюз7108095 2.4 996895
21:00+16зюз510916 5.4 998341